User: anonymous   Login
Location: Berg
(47.2344°N, 9.5296°E)
Time: 21:06:30
(UTC+00:00)
Language:

Cosmos 1455 - Orbit

View from above orbital plane
View from above orbital plane
View from above satellite
View from above satellite

Ground track
Ground track

The orbit data is extracted from the following two-line orbital elements,

1 14032U 83037A   21110.57538989  .00001114  00000-0  51806-4 0  9991
2 14032  82.5136 139.6676 0018504  79.7699 280.5621 15.18753535 74031
Epoch (UTC): 20 April 2021 13:48:33
Eccentricity: 0.0018504
inclination: 82.5136°
perigee height: 497 km
apogee height: 522 km
right ascension of ascending node: 139.6676°
argument of perigee: 79.7699°
revolutions per day: 15.18753535
mean anomaly at epoch: 280.5621°
orbit number at epoch: 7403

The dashed part of the orbit path shows where the satellite is in the earth's shadow,  

DLR